Back to catalog

STARLINK-34119

AliveCommunicationsVLEO
NORAD 63895·PAYLOAD·🇺🇸 United States

Launched May 10, 2025 from Cape Canaveral Space Force Station

Loading…

Next Passes (next 24 hours)

TLE

FreshSource: CelesTrak SupGP

Epoch: Sep 14, 2026, 14:15 UTC

1 63895C 25095F   26257.59423611  .00000465  00000+0  16840-4 0  2579
2 63895  43.0009 189.6345 0001028 260.0387 163.5129 15.27562583    14

Track STARLINK-34119 in real time with AllMySat

Download on the App Store